Location: Emblem
(62.4273°N, 6.4710°E)
Time: 20:09:49
(UTC+02:00)

Vanguard 2 - Pass Details

Date: 14 February 2023
Orbit: 553 x 2927 km, 32.9° (Epoch: 27 March)

Event Time Altitude Azimuth Distance (km) Brightness Sun altitude
Rises 20:42:20 0° 213° (SSW) 4,507 11.6 -24.4°
Reaches altitude 10° 20:48:03 10° 184° (S) 4,104 11.1 -25.0°
Maximum altitude 20:51:29 12° 166° (SSE) 4,268 11.0 -25.4°
Enters shadow 20:51:48 12° 164° (SSE) 4,297 11.0 -25.4°
Drops below altitude 10° 20:55:21 10° 148° (SSE) 4,743 - -25.8°
Sets 21:03:42 0° 124° (SE) 6,315 - -26.7°
